| time (UTC) | temp F | wind direction | speed MPH | gust MPH | rain 1hr in | rain 24hr in | rain mn in | humidity % | barometer mb |
| 20260904013017 | 71 | 0.0 | 2.0 | 0.00 | 0.13 | 0.13 | 90 | 1011.7 | |
| 20260904012017 | 71 | 0.0 | 1.0 | 0.00 | 0.13 | 0.13 | 90 | 1011.8 | |
| 20260904011037 | 71 | 0.0 | 1.0 | 0.00 | 0.13 | 0.13 | 90 | 1011.9 | |
| 20260904010017 | 71 | 0.0 | 2.0 | 0.00 | 0.13 | 0.13 | 89 | 1011.9 | |
| 20260904005017 | 72 | 180 | 1.0 | 2.0 | 0.00 | 0.13 | 0.13 | 89 | 1011.6 |
| 20260904004037 | 72 | 158 | 1.0 | 4.0 | 0.00 | 0.13 | 0.13 | 88 | 1011.6 |
| 20260904003017 | 72 | 158 | 1.0 | 4.0 | 0.00 | 0.13 | 0.13 | 88 | 1011.4 |
| 20260904002157 | 72 | 0.0 | 3.0 | 0.00 | 0.13 | 0.13 | 87 | 1011.2 | |
| 20260904001017 | 73 | 0.0 | 2.0 | 0.00 | 0.13 | 0.13 | 86 | 1011.0 | |
| 20260904000017 | 73 | 0.0 | 1.0 | 0.00 | 0.13 | 0.13 | 86 | 1011.1 | |
| 20260903235017 | 74 | 0.0 | 1.0 | 0.00 | 0.13 | 0.13 | 85 | 1011.1 | |
| 20260903234017 | 74 | 0.0 | 2.0 | 0.00 | 0.13 | 0.13 | 84 | 1011.0 | |
| 20260903233037 | 74 | 0.0 | 3.0 | 0.00 | 0.13 | 0.13 | 84 | 1010.9 | |
| 20260903232017 | 75 | 0.0 | 0.0 | 0.00 | 0.13 | 0.13 | 83 | 1011.0 | |
| 20260903231017 | 75 | 0.0 | 1.0 | 0.00 | 0.13 | 0.13 | 82 | 1011.1 | |
| 20260903230017 | 75 | 0.0 | 1.0 | 0.00 | 0.13 | 0.13 | 82 | 1011.1 | |
| 20260903225017 | 76 | 0.0 | 3.0 | 0.00 | 0.13 | 0.13 | 81 | 1011.0 | |
| 20260903224017 | 76 | 158 | 1.0 | 4.0 | 0.00 | 0.13 | 0.13 | 80 | 1010.9 |
| 20260903223017 | 76 | 158 | 1.0 | 3.0 | 0.00 | 0.13 | 0.13 | 79 | 1011.1 |
| 20260903222037 | 77 | 158 | 1.0 | 3.0 | 0.00 | 0.13 | 0.13 | 79 | 1011.5 |
| 20260903221037 | 77 | 0.0 | 3.0 | 0.00 | 0.13 | 0.13 | 78 | 1011.5 | |
| 20260903220017 | 77 | 0.0 | 0.0 | 0.00 | 0.13 | 0.13 | 78 | 1011.5 | |
| 20260903215017 | 77 | 0.0 | 1.0 | 0.00 | 0.13 | 0.13 | 77 | 1011.4 | |
| 20260903214017 | 77 | 158 | 1.0 | 3.0 | 0.00 | 0.13 | 0.13 | 77 | 1011.4 |
| 20260903213017 | 77 | 0.0 | 3.0 | 0.00 | 0.13 | 0.13 | 77 | 1011.4 | |
| 20260903212017 | 77 | 0.0 | 1.0 | 0.00 | 0.13 | 0.13 | 76 | 1011.4 | |
| 20260903211017 | 77 | 180 | 2.0 | 4.0 | 0.00 | 0.13 | 0.13 | 76 | 1011.3 |
| 20260903210017 | 78 | 158 | 2.0 | 4.0 | 0.00 | 0.13 | 0.13 | 74 | 1011.3 |
| 20260903205016 | 79 | 180 | 2.0 | 6.0 | 0.00 | 0.13 | 0.13 | 73 | 1011.3 |
| 20260903204016 | 79 | 0.0 | 3.0 | 0.00 | 0.13 | 0.13 | 74 | 1011.6 | |
| 20260903203016 | 78 | 158 | 1.0 | 4.0 | 0.00 | 0.13 | 0.13 | 73 | 1011.5 |
| 20260903202016 | 77 | 158 | 1.0 | 3.0 | 0.00 | 0.13 | 0.13 | 76 | 1011.5 |
| 20260903201016 | 76 | 0 | 1.0 | 4.0 | 0.00 | 0.13 | 0.13 | 78 | 1011.5 |
| 20260903200017 | 76 | 45 | 1.0 | 4.0 | 0.00 | 0.13 | 0.13 | 77 | 1011.7 |
| 20260903195016 | 76 | 113 | 1.0 | 4.0 | 0.00 | 0.13 | 0.13 | 77 | 1011.8 |
| 20260903194037 | 76 | 113 | 1.0 | 5.0 | 0.00 | 0.13 | 0.13 | 77 | 1012.0 |
| 20260903193036 | 76 | 158 | 1.0 | 4.0 | 0.00 | 0.13 | 0.13 | 79 | 1012.1 |
| 20260903192016 | 74 | 0.0 | 2.0 | 0.00 | 0.13 | 0.13 | 80 | 1012.3 | |
| 20260903191016 | 74 | 0.0 | 3.0 | 0.00 | 0.13 | 0.13 | 80 | 1012.2 | |
| 20260903190016 | 74 | 90 | 1.0 | 3.0 | 0.00 | 0.13 | 0.13 | 81 | 1012.3 |
| 20260903185016 | 73 | 180 | 1.0 | 4.0 | 0.00 | 0.13 | 0.13 | 81 | 1012.4 |
| 20260903184016 | 73 | 180 | 1.0 | 4.0 | 0.00 | 0.13 | 0.13 | 82 | 1012.6 |
| 20260903183016 | 73 | 113 | 1.0 | 4.0 | 0.00 | 0.13 | 0.13 | 83 | 1012.6 |
| 20260903182016 | 72 | 158 | 1.0 | 4.0 | 0.00 | 0.13 | 0.13 | 83 | 1012.6 |
| 20260903181016 | 72 | 0.0 | 2.0 | 0.00 | 0.13 | 0.13 | 84 | 1012.9 | |
| 20260903180016 | 72 | 338 | 1.0 | 4.0 | 0.00 | 0.13 | 0.13 | 85 | 1013.0 |
| 20260903175016 | 72 | 338 | 1.0 | 4.0 | 0.00 | 0.13 | 0.13 | 86 | 1013.0 |
| 20260903174016 | 71 | 0 | 1.0 | 5.0 | 0.00 | 0.13 | 0.13 | 85 | 1013.2 |
| 20260903173016 | 71 | 0 | 2.0 | 5.0 | 0.00 | 0.13 | 0.13 | 85 | 1013.3 |
| 20260903172017 | 71 | 23 | 1.0 | 4.0 | 0.00 | 0.13 | 0.13 | 86 | 1013.2 |
| 20260903171016 | 70 | 0.0 | 3.0 | 0.00 | 0.13 | 0.13 | 86 | 1013.0 | |
| 20260903170036 | 70 | 0 | 1.0 | 5.0 | 0.00 | 0.13 | 0.13 | 87 | 1013.0 |
| 20260903165016 | 70 | 0 | 2.0 | 5.0 | 0.00 | 0.13 | 0.13 | 87 | 1013.0 |
| 20260903164016 | 70 | 315 | 2.0 | 6.0 | 0.00 | 0.13 | 0.13 | 88 | 1013.0 |
| 20260903163016 | 69 | 0 | 1.0 | 4.0 | 0.00 | 0.13 | 0.13 | 89 | 1013.1 |
| 20260903162016 | 69 | 23 | 2.0 | 5.0 | 0.00 | 0.13 | 0.13 | 90 | 1013.1 |
| 20260903161016 | 68 | 23 | 1.0 | 4.0 | 0.00 | 0.13 | 0.13 | 90 | 1013.1 |
| 20260903160036 | 68 | 0.0 | 3.0 | 0.00 | 0.13 | 0.13 | 91 | 1013.0 | |
| 20260903155016 | 67 | 0 | 1.0 | 4.0 | 0.00 | 0.13 | 0.13 | 91 | 1013.2 |
| 20260903154036 | 67 | 0.0 | 2.0 | 0.00 | 0.13 | 0.13 | 92 | 1013.3 | |
| 20260903153036 | 67 | 0.0 | 2.0 | 0.00 | 0.13 | 0.13 | 92 | 1013.7 | |
| 20260903152016 | 67 | 0.0 | 1.0 | 0.00 | 0.13 | 0.13 | 93 | 1013.7 | |
| 20260903151016 | 66 | 0.0 | 3.0 | 0.00 | 0.13 | 0.13 | 94 | 1013.8 | |
| 20260903150016 | 66 | 23 | 1.0 | 4.0 | 0.00 | 0.13 | 0.13 | 94 | 1013.9 |
| 20260903145016 | 66 | 0.0 | 2.0 | 0.00 | 0.13 | 0.13 | 94 | 1013.8 | |
| 20260903144016 | 65 | 0 | 1.0 | 2.0 | 0.00 | 0.13 | 0.13 | 94 | 1014.0 |
| 20260903143036 | 65 | 0.0 | 2.0 | 0.00 | 0.13 | 0.13 | 95 | 1013.9 | |
| 20260903142016 | 65 | 0.0 | 3.0 | 0.00 | 0.13 | 0.13 | 95 | 1013.9 | |
| 20260903141016 | 64 | 0.0 | 0.0 | 0.00 | 0.13 | 0.13 | 95 | 1014.2 | |
| 20260903140016 | 64 | 0.0 | 0.0 | 0.00 | 0.13 | 0.13 | 95 | 1014.3 | |
| 20260903135036 | 64 | 0.0 | 0.0 | 0.00 | 0.13 | 0.13 | 95 | 1014.5 | |
| 20260903134016 | 64 | 0.0 | 0.0 | 0.00 | 0.13 | 0.13 | 95 | 1014.4 | |
| 20260903133016 | 64 | 0.0 | 0.0 | 0.00 | 0.13 | 0.13 | 95 | 1014.3 | |
| 20260903132016 | 63 | 0.0 | 0.0 | 0.00 | 0.13 | 0.13 | 95 | 1014.2 | |
| 20260903131016 | 63 | 0.0 | 0.0 | 0.00 | 0.13 | 0.13 | 95 | 1014.3 | |
| 20260903130016 | 63 | 0.0 | 2.0 | 0.00 | 0.13 | 0.13 | 95 | 1014.3 | |
| 20260903125016 | 63 | 0.0 | 1.0 | 0.00 | 0.13 | 0.13 | 95 | 1014.4 | |
| 20260903124016 | 63 | 0.0 | 1.0 | 0.00 | 0.13 | 0.13 | 95 | 1014.6 | |
| 20260903123016 | 63 | 0.0 | 2.0 | 0.00 | 0.13 | 0.13 | 95 | 1014.7 | |
| 20260903122016 | 63 | 0.0 | 1.0 | 0.00 | 0.13 | 0.13 | 95 | 1014.8 | |
| 20260903121016 | 62 | 0.0 | 1.0 | 0.00 | 0.13 | 0.13 | 95 | 1014.9 | |
| 20260903120016 | 62 | 0.0 | 1.0 | 0.01 | 0.13 | 0.13 | 95 | 1015.0 | |
| 20260903115016 | 62 | 0.0 | 1.0 | 0.01 | 0.13 | 0.13 | 95 | 1015.1 | |
| 20260903114016 | 62 | 0.0 | 1.0 | 0.01 | 0.13 | 0.13 | 94 | 1015.2 | |
| 20260903113016 | 62 | 0.0 | 2.0 | 0.01 | 0.13 | 0.13 | 94 | 1015.1 | |
| 20260903112036 | 62 | 0.0 | 0.0 | 0.01 | 0.13 | 0.13 | 94 | 1015.2 | |
| 20260903111036 | 62 | 0.0 | 1.0 | 0.02 | 0.13 | 0.13 | 94 | 1015.1 | |
| 20260903110015 | 62 | 0.0 | 1.0 | 0.02 | 0.12 | 0.12 | 94 | 1015.3 | |
| 20260903105016 | 62 | 0.0 | 0.0 | 0.02 | 0.12 | 0.12 | 94 | 1015.3 | |
| 20260903104016 | 62 | 0.0 | 1.0 | 0.04 | 0.12 | 0.12 | 93 | 1015.2 | |
| 20260903103016 | 62 | 0.0 | 1.0 | 0.04 | 0.12 | 0.12 | 93 | 1015.3 | |
| 20260903102015 | 62 | 0.0 | 0.0 | 0.05 | 0.12 | 0.12 | 93 | 1015.2 | |
| 20260903101015 | 62 | 0.0 | 0.0 | 0.06 | 0.11 | 0.11 | 93 | 1015.0 | |
| 20260903100016 | 62 | 225 | 1.0 | 3.0 | 0.05 | 0.10 | 0.10 | 93 | 1015.0 |
| 20260903095016 | 62 | 0.0 | 2.0 | 0.05 | 0.10 | 0.10 | 92 | 1015.1 | |
| 20260903094016 | 62 | 0.0 | 0.0 | 0.03 | 0.08 | 0.08 | 92 | 1015.3 | |
| 20260903093015 | 62 | 0.0 | 1.0 | 0.03 | 0.08 | 0.08 | 92 | 1015.3 | |
| 20260903092035 | 62 | 0.0 | 1.0 | 0.02 | 0.07 | 0.07 | 91 | 1015.6 | |
| 20260903091015 | 62 | 0.0 | 1.0 | 0.01 | 0.05 | 0.05 | 91 | 1015.4 | |
| 20260903090015 | 62 | 0.0 | 1.0 | 0.04 | 0.05 | 0.05 | 90 | 1015.6 | |
| 20260903085015 | 62 | 180 | 1.0 | 5.0 | 0.05 | 0.05 | 0.05 | 90 | 1015.6 |
| 20260903084015 | 63 | 158 | 1.0 | 3.0 | 0.05 | 0.05 | 0.05 | 88 | 1015.6 |
| 20260903083015 | 63 | 0.0 | 2.0 | 0.05 | 0.05 | 0.05 | 87 | 1015.9 | |
| 20260903082035 | 64 | 158 | 1.0 | 5.0 | 0.05 | 0.05 | 0.05 | 86 | 1015.7 |
| 20260903081015 | 65 | 203 | 1.0 | 3.0 | 0.04 | 0.04 | 0.04 | 84 | 1015.8 |
| 20260903080017 | 65 | 180 | 2.0 | 8.0 | 0.01 | 0.01 | 0.01 | 82 | 1015.6 |
| 20260903075017 | 65 | 158 | 3.0 | 8.0 | 0.00 | 0.00 | 0.00 | 80 | 1015.6 |
| 20260903074017 | 65 | 158 | 1.0 | 4.0 | 0.00 | 0.00 | 0.00 | 81 | 1015.9 |
| 20260903073017 | 65 | 158 | 2.0 | 5.0 | 0.00 | 0.00 | 0.00 | 81 | 1016.0 |
| 20260903072017 | 65 | 158 | 2.0 | 6.0 | 0.00 | 0.00 | 0.00 | 81 | 1015.9 |
| 20260903071017 | 65 | 158 | 2.0 | 5.0 | 0.00 | 0.00 | 0.00 | 81 | 1015.9 |
| 20260903070037 | 65 | 158 | 3.0 | 9.0 | 0.00 | 0.00 | 0.00 | 81 | 1016.1 |
| 20260903065017 | 65 | 158 | 3.0 | 6.0 | 0.00 | 0.00 | 0.00 | 81 | 1016.4 |
| 20260903064017 | 65 | 180 | 3.0 | 6.0 | 0.00 | 0.00 | 0.00 | 81 | 1016.9 |
| 20260903063017 | 65 | 158 | 2.0 | 6.0 | 0.00 | 0.00 | 0.00 | 81 | 1017.1 |
| 20260903062017 | 65 | 180 | 2.0 | 5.0 | 0.00 | 0.00 | 0.00 | 81 | 1017.4 |
| 20260903061017 | 65 | 180 | 3.0 | 8.0 | 0.00 | 0.00 | 0.00 | 81 | 1017.6 |
| 20260903060037 | 65 | 180 | 3.0 | 7.0 | 0.00 | 0.00 | 0.00 | 82 | 1017.8 |
| 20260903055017 | 65 | 158 | 2.0 | 5.0 | 0.00 | 0.00 | 0.00 | 82 | 1018.1 |
| 20260903054017 | 65 | 158 | 3.0 | 8.0 | 0.00 | 0.00 | 0.00 | 82 | 1018.2 |
| 20260903053015 | 65 | 180 | 3.0 | 9.0 | 0.00 | 0.00 | 0.00 | 83 | 1018.1 |
| 20260903052017 | 65 | 180 | 4.0 | 9.0 | 0.00 | 0.00 | 0.00 | 83 | 1017.9 |
| 20260903051017 | 65 | 158 | 3.0 | 7.0 | 0.00 | 0.00 | 0.00 | 82 | 1017.9 |
| 20260903050017 | 65 | 158 | 2.0 | 6.0 | 0.00 | 0.00 | 0.00 | 82 | 1018.1 |
| 20260903045037 | 65 | 180 | 2.0 | 6.0 | 0.00 | 0.00 | 0.00 | 82 | 1018.3 |
| 20260903044017 | 65 | 180 | 2.0 | 6.0 | 0.00 | 0.00 | 0.00 | 82 | 1018.6 |
| 20260903043017 | 65 | 180 | 2.0 | 5.0 | 0.00 | 0.00 | 0.00 | 82 | 1018.5 |
| 20260903042017 | 65 | 158 | 2.0 | 6.0 | 0.00 | 0.00 | 0.00 | 83 | 1018.4 |
| 20260903041037 | 65 | 158 | 2.0 | 5.0 | 0.00 | 0.00 | 0.00 | 84 | 1018.3 |
| 20260903040017 | 65 | 158 | 2.0 | 5.0 | 0.00 | 0.00 | 0.00 | 84 | 1018.5 |
| 20260903035015 | 65 | 158 | 2.0 | 5.0 | 0.00 | 0.00 | 0.00 | 84 | 1018.4 |
| 20260903034015 | 66 | 158 | 2.0 | 8.0 | 0.00 | 0.00 | 0.00 | 84 | 1018.4 |
| 20260903033015 | 66 | 180 | 2.0 | 6.0 | 0.00 | 0.00 | 0.00 | 84 | 1018.7 |
| 20260903032035 | 66 | 180 | 2.0 | 7.0 | 0.00 | 0.00 | 0.00 | 84 | 1018.9 |
| 20260903031056 | 66 | 135 | 1.0 | 4.0 | 0.00 | 0.00 | 0.00 | 84 | 1018.9 |
| 20260903030037 | 66 | 180 | 2.0 | 6.0 | 0.00 | 0.00 | 0.00 | 84 | 1019.1 |
| 20260903025017 | 66 | 158 | 1.0 | 4.0 | 0.00 | 0.00 | 0.00 | 84 | 1019.1 |
| 20260903024017 | 66 | 135 | 1.0 | 2.0 | 0.00 | 0.00 | 0.00 | 84 | 1019.3 |
| 20260903023037 | 66 | 180 | 1.0 | 3.0 | 0.00 | 0.00 | 0.00 | 84 | 1019.3 |
| 20260903022037 | 66 | 180 | 1.0 | 2.0 | 0.00 | 0.00 | 0.00 | 84 | 1019.2 |
| 20260903021017 | 66 | 113 | 1.0 | 4.0 | 0.00 | 0.00 | 0.00 | 83 | 1019.2 |
| 20260903020017 | 66 | 113 | 1.0 | 3.0 | 0.00 | 0.00 | 0.00 | 83 | 1019.4 |
| 20260903015017 | 66 | 158 | 1.0 | 5.0 | 0.00 | 0.00 | 0.00 | 83 | 1019.6 |
| 20260903014017 | 66 | 158 | 2.0 | 6.0 | 0.00 | 0.00 | 0.00 | 83 | 1019.6 |